Location: Moscow
(38.8570°N, 84.2291°W)
Time: 19:36:34
(UTC+00:00)

Cosmos 1782 Rocket - Pass Details

Date: 15 November 2025
Orbit: 599 x 626 km, 82.5° (Epoch: 12 December)

Event Time Altitude Azimuth Distance (km) Brightness Sun altitude
Rises 23:03:29 0° 193° (SSW) 2,895 7.5 -8.2°
Reaches altitude 10° 23:05:43 10° 196° (SSW) 1,993 6.7 -8.6°
Maximum altitude 23:10:06 64° 279° (W) 694 4.1 -9.5°
Drops below altitude 10° 23:14:31 10° 1° (N) 2,004 6.0 -10.3°
Sets 23:16:47 0° 4° (N) 2,912 6.8 -10.7°
